Location: *
(35.8942°N, 23.3025°E)
Time: 10:01:35
(UTC+00:00)

QB50P2 - Visible Passes

Search period start: 20 April 2024 00:00
Search period end: 30 April 2024 00:00
Orbit: 568 x 582 km, 98.0° (Epoch: 19 April)

Date Brightness Start Highest point End Pass type
(mag) Time Alt. Az. Time Alt. Az. Time Alt. Az.
20 Apr ? 00:41:31 10° NNE 00:43:20 24° NNE 00:43:20 24° NNE visible
20 Apr ? 02:19:04 10° NW 02:19:33 11° NW 02:19:33 11° NW visible
21 Apr ? 00:44:53 10° NNE 00:46:51 27° NNE 00:46:51 27° NNE visible
22 Apr ? 00:48:13 10° NNE 00:50:22 29° NNE 00:50:22 29° NNE visible
23 Apr ? 00:51:32 10° NNE 00:53:50 32° NNE 00:53:50 32° NNE visible
24 Apr ? 00:54:49 10° NNE 00:57:16 35° NNE 00:57:16 35° NNE visible
25 Apr ? 00:58:04 10° NNE 01:00:41 38° NNE 01:00:41 38° NNE visible
26 Apr ? 01:01:18 10° NNE 01:04:03 41° N 01:04:03 41° N visible
27 Apr ? 01:04:31 10° N 01:07:23 44° N 01:07:23 44° N visible
28 Apr ? 01:07:42 10° N 01:10:42 46° N 01:10:42 46° N visible
29 Apr ? 01:10:52 10° N 01:13:58 48° NNW 01:13:58 48° NNW visible
